Вернуться в каталог

YAOGAN-39 03A

АктивенВоенныеVLEO
NORAD 57986·PAYLOAD·🇨🇳 China

Запущен Oct 5, 2023 с Xichang Satellite Launch Center

Loading…

Ближайшие Пролёты (ближайшие 24 часа)

TLE

СвежийSource: Space-Track

Эпоха: Sep 14, 2026, 22:25 UTC

1 57986U 23152A   26257.93438411  .00008350  00000-0  34719-3 0  9996
2 57986  35.0014  68.1012 0004126 264.9295  95.0949 15.23048757164131

Отслеживайте YAOGAN-39 03A в реальном времени с AllMySat

Download on the App Store